LQTZLDZA

Guest
Details From LQTZ - TUZLA
To LDZA - Zagreb
Flight Number -
Tags generated
Created
Modified
Stats Distance 137 nm / 253 km
Max Altitude 10,300 ft / 3,139 m
Waypoints 3
Social Downloads 1
Likes 0
Share VATSIM

Download

Looking for another format? Having issues loading an existing format? Contact us
Advertisement - Login to hide

Notes

Basic altitude profile: - Ascent Rate: 2500ft/min - Ascent Speed: 250kts - Cruise Altitude: 35000ft - Cruise Speed: 420kts - Descent Rate: 1500ft/min - Descent Speed: 250kts Options: - Use NATs: yes - Use PACOTS: yes - Use low airways: yes - Use high airways: yes

Route

LQTZ NOVLO LDZA

ID Type Via Altitude Latitude Longitude Leg Dist Tot Dist Heading (true) Name
O LQTZ APT - 0 ft / 0 m 44.45867˚ 18.72483˚ - 0 nm - TUZLA
NOVLO FIX - 10,300 ft / 3,139 m 45.22944˚ 16.95306˚ 88 nm 88 nm 302° / 301° -
O LDZA APT - 0 ft / 0 m 45.74189˚ 16.06720˚ 48 nm 136 nm 310° / 309° Zagreb

Altitude Profile

Advertisement - Login to hide

LQTZ

Details ICAO LQTZ
Name TUZLA
Region Bosnia and Herzegovinia
Timezone Europe/Sarajevo (UTC+1.0)
Stats Elevation 784 ft / 239 m (AMSL)
Location 44.458666° 18.724833°
Runways 1
Magnetic Variation 4.353° E

METAR

LQTZ 182000Z 29005KT 1500 SN BR BKN005 OVC010 M00/M00 Q1025

Decode

TAF

Not found

Departure Runways

ID Width Length Bearing (true) Bearing (mag) Surface Threshold Offset Overrun Length
09 148 ft / 45 m 8,119 ft / 2,475 m 96.01° 91.66° Asphalt 0 ft / 0 m 99 ft / 30 m
27 148 ft / 45 m 8,119 ft / 2,475 m 276.03° 271.68° Asphalt 0 ft / 0 m 110 ft / 34 m

LDZA

Details ICAO LDZA (ZAG)
Name Zagreb
Region Croatia
Timezone Europe/Zagreb (UTC+1.0)
Stats Elevation 353 ft / 108 m (AMSL)
Location 45.741890° 16.067200°
Runways 1
Magnetic Variation 3.960° E

METAR

LDZA 182000Z 25003KT 8000 NSC M02/M03 Q1027 BECMG 4000 BR

Decode

TAF

TAF AMD LDZA 181800Z 1818/1918 VRB02KT 6000 NSC TX01/1913Z TNM08/1906Z TEMPO 1818/1822 0800 BCFG SCT001 BECMG 1820/1822 0300 FZFG BECMG 1822/1900 0100 VV001 BECMG 1909/1911 1000 BR BKN002 BECMG 1911/1913 4000 SCT010 BECMG 1915/1917 0300 FZFG VV001

Decode

Destination Runways

ID Width Length Bearing (true) Bearing (mag) Surface Threshold Offset Overrun Length
05 148 ft / 45 m 10,659 ft / 3,249 m 46.69° 42.73° Asphalt 0 ft / 0 m 195 ft / 59 m
23 148 ft / 45 m 10,659 ft / 3,249 m 226.71° 222.75° Asphalt 0 ft / 0 m 195 ft / 59 m

Approach Navaids

Runway Type Ident Frequency Range Bearing (true) Bearing (mag) Slope Elevation
05 Localiser IZA 109.50 MHz 25 nm / 46 km 46.79° 42.83° - 335 ft / 102 m (AMSL)
05 Glidescope IZA 109.50 MHz 25 nm / 46 km 46.79° 42.83° 3.00° 344 ft / 105 m (AMSL)
05 DME IZA 109.50 MHz 25 nm / 46 km - - - 372 ft / 113 m (AMSL)
23 Localiser IZG 109.10 MHz 25 nm / 46 km 226.81° 222.85° - 344 ft / 105 m (AMSL)
23 Glidescope IZG 109.10 MHz 25 nm / 46 km 226.81° 222.85° 3.00° 344 ft / 105 m (AMSL)

Popular Alternatives